Weather History for KGSH - November, 2011

Change the Weather History Date:

Sunday, November 13, 2011

  Actual Average (WUND) Record (WUND)
Temperature  
Mean Temperature 60 °F -  
Max Temperature 64 °F - - (-1)
Min Temperature 53 °F - - (-1)
Degree Days  
Heating Degree Days 6    
Growing Degree Days 10 (Base 50)    
Moisture  
Dew Point 47 °F    
Average Humidity 62    
Maximum Humidity 72    
Minimum Humidity 39    
Precipitation  
Precipitation 0.00 in - - ()
Sea Level Pressure  
Sea Level Pressure 29.58 in    
Wind  
Wind Speed 23 mph (SSW)    
Max Wind Speed 31 mph    
Max Gust Speed 44 mph    
Visibility 10 miles    
Events      
Averages and records for this station are not official NWS values.
T = Trace of Precipitation, MM = Missing Value Source: NWS Daily Summary

Daily Weather History Graph

Daily Weather History Graph

Search for Another Location

Airport or City:

Trip Planner

Search our weather history database for the weather conditions in past years. The results will help you decide how hot, cold, wet, or windy it might be!

Date:

Astronomy

Nov. 13, 2011 Rise Set
Actual Time 7:29 AM EST 5:25 PM EST
Civil Twilight 6:59 AM EST 5:54 PM EST
Nautical Twilight 6:26 AM EST 6:28 PM EST
Astronomical Twilight 5:53 AM EST 7:00 PM EST
Moon 7:32 PM EST (11/13) 10:02 AM EST (11/13)
Length of Visible Light 10h 55m
Length of Day
9h 56m
Waning Gibbous, 93% of the Moon is Illuminated
Nov 13
Waning Gibbous
Nov 18
Last Quarter
Nov 25
New
Dec 2
First Quarter
Dec 10
Full

Hourly Weather History & Observations

Time (EST) Temp. Dew Point Humidity Pressure Visibility Wind Dir Wind Speed Gust Speed Precip Events Conditions
12:53 AM 55.0 °F 39.9 °F 57% 29.73 in 10.0 mi SSW 23.0 mph 28.8 mph N/A   Overcast
1:53 AM 55.0 °F 41.0 °F 59% 29.70 in 10.0 mi South 21.9 mph 28.8 mph N/A   Overcast
2:53 AM 55.9 °F 42.1 °F 60% 29.69 in 10.0 mi SSW 20.7 mph 33.4 mph N/A   Overcast
3:53 AM 55.0 °F 42.1 °F 62% 29.66 in 10.0 mi SSW 19.6 mph 31.1 mph N/A   Mostly Cloudy
4:53 AM 55.9 °F 43.0 °F 62% 29.65 in 10.0 mi South 27.6 mph 35.7 mph N/A   Scattered Clouds
5:53 AM 55.0 °F 43.0 °F 64% 29.64 in 10.0 mi South 23.0 mph 35.7 mph N/A   Mostly Cloudy
6:53 AM 55.0 °F 44.1 °F 67% 29.62 in 10.0 mi South 24.2 mph 34.5 mph N/A   Scattered Clouds
7:53 AM 55.9 °F 44.1 °F 64% 29.61 in 10.0 mi South 24.2 mph 34.5 mph N/A   Mostly Cloudy
8:53 AM 57.0 °F 45.0 °F 64% 29.63 in 10.0 mi SSW 25.3 mph 34.5 mph N/A   Overcast
9:53 AM 57.9 °F 46.9 °F 67% 29.60 in 10.0 mi South 25.3 mph 32.2 mph N/A   Overcast
10:53 AM 61.0 °F 48.9 °F 64% 29.56 in 10.0 mi South 25.3 mph 38.0 mph N/A   Overcast
11:53 AM 61.0 °F 48.9 °F 64% 29.55 in 10.0 mi SSW 24.2 mph 36.8 mph N/A   Overcast
12:53 PM 62.1 °F 50.0 °F 65% 29.51 in 10.0 mi South 21.9 mph 32.2 mph N/A   Overcast
1:53 PM 62.1 °F 50.0 °F 65% 29.48 in 10.0 mi South 19.6 mph 27.6 mph N/A   Overcast
2:53 PM 64.0 °F 51.1 °F 63% 29.47 in 10.0 mi SSW 19.6 mph 32.2 mph N/A   Overcast
3:53 PM 64.9 °F 52.0 °F 63% 29.47 in 10.0 mi SSW 25.3 mph 33.4 mph N/A   Mostly Cloudy
4:53 PM 64.9 °F 52.0 °F 63% 29.46 in 10.0 mi South 25.3 mph 34.5 mph N/A   Clear
5:53 PM 64.0 °F 52.0 °F 65% 29.49 in 10.0 mi SSW 23.0 mph 34.5 mph N/A   Clear
6:53 PM 64.9 °F 53.1 °F 65% 29.49 in 10.0 mi SSW 26.5 mph 36.8 mph N/A   Clear
7:53 PM 64.9 °F 53.1 °F 65% 29.51 in 10.0 mi SSW 31.1 mph 43.7 mph N/A   Clear
8:53 PM 64.0 °F 54.0 °F 70% 29.52 in 10.0 mi SSW 28.8 mph 36.8 mph N/A   Clear
9:53 PM 64.0 °F 54.0 °F 70% 29.57 in 10.0 mi WSW 18.4 mph 27.6 mph N/A   Mostly Cloudy
10:02 PM 62.6 °F 53.6 °F 72% 29.58 in 10.0 mi WSW 17.3 mph 25.3 mph N/A   Mostly Cloudy
10:24 PM 60.8 °F 42.8 °F 52% 29.61 in 10.0 mi West 20.7 mph 29.9 mph N/A   Scattered Clouds
10:53 PM 57.9 °F 33.1 °F 39% 29.62 in 10.0 mi West 17.3 mph 24.2 mph N/A   Mostly Cloudy
11:53 PM 53.1 °F 32.0 °F 45% 29.65 in 10.0 mi WSW 9.2 mph - N/A   Partly Cloudy